Flag for Canada Weather past 2 weeks in Guelph, Ontario, Canada

Now
37 °F

Clear.


Feels Like: 35 °F
Forecast: 37 / 59 °F
Wind: 3 mph from North

Location: Waterloo Well

Current Time: Sep 19, 2014 at 1:53:36 AM

Latest Report: Sep 19, 2014 at 1:00 AM


Visibility: 9 mi

Pressure: 30.26 "Hg

Humidity: 93%

Dew point: 36 °F

Location of GuelphLocation

Historic Weather in Guelph — Graph

°F

Guelph temperature yesterday

Maximum temperature yesterday: 59 °F (at 4:00 PM)
Minimum temperature yesterday: 39 °F (at 6:00 AM)
Average temperature yesterday: 48 °F

Past Weeks' High & Low Weather Summary

 TemperatureHumidityPressure
High84 °F (Sep 5, 3:00 PM)100% (Sep 4, 12:48 AM)30.37 "Hg (Sep 4, 12:48 AM)
Low37 °F (Sep 14, 4:57 AM)43% (Sep 7, 5:00 PM)29.54 "Hg (Sep 11, 3:00 AM)
Average57 °F83%30.08 "Hg
* Reported Sep 4 12:01 AM — Midnight between Sep 18 and Sep 19, Guelph, Weather by CustomWeather, © 2014

Note: Actual official high and low records may vary slightly from our data, if they occured in-between our weather recording intervals... More about our weather records

Advertising

Guelph weather history for previous 24 hours

 ConditionsComfort  
Time TempWeatherWind HumidityBarometerVisibility
12:00 AM
Sep 19
41 °FClear.3 mph81%30.25 "Hg9 mi
11:00 PM
Sep 18
43 °FClear.5 mph81%30.24 "Hg9 mi
10:00 PM45 °FClear.5 mph76%30.22 "Hg9 mi
9:00 PM46 °FClear.6 mph76%30.20 "Hg9 mi
8:00 PM48 °FPartly sunny.6 mph82%30.18 "Hg9 mi
7:00 PM55 °FSunny.5 mph59%30.16 "Hg9 mi
6:00 PM57 °FSunny.5 mph59%30.16 "Hg9 mi
5:00 PM59 °FSunny.8 mph55%30.15 "Hg9 mi
4:00 PM59 °FPassing clouds.3 mph59%30.15 "Hg9 mi
3:00 PM57 °FPassing clouds.7 mph63%30.15 "Hg9 mi
2:00 PM57 °FPartly sunny.8 mph59%30.15 "Hg9 mi
1:00 PM55 °FPartly sunny.8 mph67%30.15 "Hg9 mi
12:00 PM55 °FScattered clouds.8 mph67%30.14 "Hg9 mi
11:00 AM52 °FOvercast.10 mph77%30.14 "Hg9 mi
10:00 AM52 °FOvercast.12 mph82%30.12 "Hg9 mi
9:00 AM52 °FPassing clouds.10 mph88%30.10 "Hg9 mi
8:00 AM46 °FFog.No wind93%30.09 "Hg4 mi
7:51 AM45 °FFog.No wind100%30.08 "Hg3 mi
7:00 AM43 °FFog.3 mph93%30.06 "Hg5 mi
6:00 AM39 °FFog.3 mph100%30.03 "Hg2 mi
5:00 AM41 °FFog.3 mph100%30.01 "Hg4 mi
4:00 AM43 °FFog.2 mph93%29.99 "Hg2 mi
3:59 AM43 °FFog.No wind93%29.99 "Hg2 mi
3:04 AM41 °FFog.2 mph100%30.00 "Hg1 mi
3:00 AM41 °FLight rain. Fog.2 mph100%30.00 "Hg1 mi
2:01 AM41 °FLight rain. Fog.No wind100%30.00 "Hg1 mi
1:49 AM43 °FLight rain. Fog.No wind100%30.00 "Hg1 mi
1:02 AM43 °FLight rain. Fog.No wind100%30.00 "Hg1 mi
Weather by CustomWeather, © 2014

See weather overviewHow to use our weather pages